Weather History for Fryeburg, ME

Change the Weather History Date:

Wednesday, January 9, 2013

  Actual Average Record
Temperature  
Mean Temperature 22 °F -  
Max Temperature 41 °F 27 °F 54 °F (2008)
Min Temperature 5 °F 7 °F -24 °F (2004)
Degree Days  
Heating Degree Days 43    
Moisture  
Dew Point 15 °F    
Average Humidity 79    
Maximum Humidity 92    
Minimum Humidity 53    
Precipitation  
Precipitation 0.00 in - - ()
Sea Level Pressure  
Sea Level Pressure 30.20 in    
Wind  
Wind Speed 1 mph (WSW)    
Max Wind Speed 8 mph    
Max Gust Speed -    
Visibility 10 miles    
Events      
Averages and records for this station are not official NWS values.
T = Trace of Precipitation, MM = Missing Value Source: NWS Daily Summary

Daily Weather History Graph

Daily Weather History Graph

Search for Another Location

Airport:

Trip Planner

Search our weather history database for the weather conditions in past years. The results will help you decide how hot, cold, wet, or windy it might be!

Date:

Astronomy

Jan. 09, 2013 Rise Set
Actual Time 7:17 AM EST 4:24 PM EST
Civil Twilight 6:45 AM EST 4:57 PM EST
Nautical Twilight 6:09 AM EST 5:33 PM EST
Astronomical Twilight 5:34 AM EST 6:08 PM EST
Moon 4:53 AM EST (1/9) 2:23 PM EST (1/9)
Length of Visible Light 10h 12m
Length of Day
9h 07m
Waning Crescent, 6% of the Moon is Illuminated
Jan 9
Waning Crescent
Jan 11
New
Jan 18
First Quarter
Jan 26
Full
Feb 3
Last Quarter

Hourly Weather History & Observations

Time (EST) Temp. Windchill Dew Point Humidity Pressure Visibility Wind Dir Wind Speed Gust Speed Precip Events Conditions
12:54 AM 12.0 °F - 9.0 °F 88% 30.38 in 10.0 mi Calm Calm - N/A   Clear
1:54 AM 12.9 °F - 9.0 °F 84% 30.39 in 10.0 mi Calm Calm - N/A   Clear
2:54 AM 10.0 °F - 8.1 °F 92% 30.39 in 10.0 mi Calm Calm - N/A   Clear
3:54 AM 8.1 °F - 6.1 °F 92% 30.38 in 10.0 mi Calm Calm - N/A   Clear
4:54 AM 9.0 °F - 6.1 °F 88% 30.37 in 10.0 mi Calm Calm - N/A   Clear
5:54 AM 6.1 °F - 3.0 °F 87% 30.39 in 10.0 mi Calm Calm - N/A   Clear
6:54 AM 5.0 °F - 1.0 °F 84% 30.41 in 10.0 mi Calm Calm - N/A   Clear
7:54 AM 6.1 °F - 3.0 °F 87% 30.41 in 10.0 mi Calm Calm - N/A   Clear
8:54 AM 12.9 °F - 10.0 °F 88% 30.40 in 10.0 mi Calm Calm - N/A   Partly Cloudy
9:54 AM 17.1 °F - 14.0 °F 88% 30.39 in 10.0 mi Calm Calm - N/A   Partly Cloudy
10:28 AM 19.4 °F - 15.8 °F 86% 30.32 in 10.0 mi Calm Calm - N/A   Mostly Cloudy
11:54 AM 25.0 °F - 18.0 °F 75% 30.27 in 10.0 mi Calm Calm - 0.00 in   Scattered Clouds
12:54 PM 27.0 °F - 19.9 °F 75% 30.19 in 10.0 mi Calm Calm - N/A   Clear
1:54 PM 28.9 °F - 19.0 °F 67% 30.17 in 10.0 mi Calm Calm - N/A   Clear
2:54 PM 30.0 °F - 21.0 °F 69% 30.13 in 10.0 mi Calm Calm - N/A   Clear
3:54 PM 28.9 °F - 21.0 °F 72% 30.07 in 10.0 mi Calm Calm - N/A   Overcast
4:54 PM 30.0 °F - 21.9 °F 72% 30.01 in 10.0 mi Calm Calm - N/A   Overcast
5:54 PM 28.9 °F - 23.0 °F 78% 29.98 in 10.0 mi Calm Calm - N/A   Overcast
6:54 PM 28.0 °F - 21.9 °F 78% 29.95 in 10.0 mi Calm Calm - N/A   Mostly Cloudy
7:54 PM 25.0 °F 20.7 °F 21.0 °F 85% 29.93 in 10.0 mi South 3.5 mph - N/A   Mostly Cloudy
9:54 PM 37.9 °F 32.1 °F 26.1 °F 62% 29.92 in 10.0 mi WSW 8.1 mph - 0.00 in   Mostly Cloudy
10:54 PM 39.0 °F 34.8 °F 30.0 °F 70% 29.92 in 10.0 mi WSW 5.8 mph - 0.00 in   Overcast
11:54 PM 41.0 °F 38.0 °F 25.0 °F 53% 29.92 in 10.0 mi West 4.6 mph - N/A   Overcast